This demonstration page uses our WeatherBlox Daily Observations layout. Learn more.

Left ArrowRight Arrow

Hourly Observations for September 7, 2021

Temp ( °F °C ) Dew Point ( °F °C ) Humidity (%) Winds ( mph kmh ) Pressure ( in mb ) Visibility ( mi km ) Precip ( " mm )
12:51 am 00:51 Clear 72 22.2 69 20.6 91 91 N N/A 29.85 1011 10 16 N/A
1:51 am 01:51 Clear 71 21.7 67 19.4 87 87 NE 5 7 29.84 1011 10 16 N/A
2:51 am 02:51 Clear 70 21.1 65 18.3 84 84 ESE 3 6 29.85 1011 10 16 N/A
3:51 am 03:51 Clear 70 21.1 64 17.8 82 82 ESE 5 7 29.85 1011 10 16 N/A
4:51 am 04:51 Clear 69 20.6 65 18.3 87 87 ESE 5 7 29.85 1011 10 16 N/A
5:51 am 05:51 Clear 67 19.4 65 18.3 93 93 N N/A 29.87 1012 10 16 N/A
6:51 am 06:51 Sunny 70 21.1 66 18.9 87 87 N N/A 29.89 1012 10 16 N/A
8:51 am 08:51 Sunny 79 26.1 64 17.8 60 60 N N/A 29.90 1012 10 16 N/A
9:51 am 09:51 Sunny 84 28.9 64 17.8 51 51 N N/A 29.89 1012 10 16 N/A
10:51 am 10:51 Sunny 87 30.6 65 18.3 48 48 N N/A 29.87 1012 10 16 N/A
11:51 am 11:51 Sunny 91 32.8 64 17.8 41 41 WNW 9 15 29.84 1010 10 16 N/A
12:51 pm 12:51 Sunny 93 33.9 63 17.2 37 37 NW 9 15 29.81 1010 10 16 N/A
1:51 pm 13:51 Sunny 95 35 60 15.6 31 31 W 10 17 29.78 1009 10 16 N/A
2:51 pm 14:51 Sunny 97 36.1 54 12.2 24 24 W 9 15 29.75 1008 10 16 N/A
3:51 pm 15:51 Sunny 97 36.1 58 14.4 27 27 W 7 11 29.73 1007 10 16 N/A
4:51 pm 16:51 Sunny 97 36.1 57 13.9 26 26 W 10 17 29.72 1007 10 16 N/A
5:51 pm 17:51 Sunny 94 34.4 58 14.4 30 30 WNW 7 11 29.72 1007 10 16 N/A
6:51 pm 18:51 Clear 87 30.6 62 16.7 43 43 N N/A 29.74 1007 10 16 N/A
7:51 pm 19:51 Clear 81 27.2 61 16.1 51 51 NW 7 11 29.75 1008 10 16 N/A
8:51 pm 20:51 Clear 80 26.7 60 15.6 51 51 VRB 3 6 29.77 1008 10 16 N/A
9:51 pm 21:51 Clear 81 27.2 60 15.6 49 49 N 5 7 29.77 1008 10 16 N/A
10:51 pm 22:51 Clear 77 25 61 16.1 58 58 E 5 7 29.79 1009 10 16 N/A
11:51 pm 23:51 Clear 75 23.9 62 16.7 64 64 E 3 6 29.79 1009 10 16 N/A

Powered by AerisWeather